Wetbulb
65.81 70.55 72.35 72.38 72.22 72.01 71.78 71.77 71.60 72.10 72.73 73.01 72.97 73.17 73.24 73.17 72.93 72.75 72.90 72.77 72.74 71.94 71.92 71.50 71.25 71.05 71.02 71.03 70.76 70.75 70.62 70.96 70.94 71.20 70.91 70.88 70.26 69.68 69.87 69.98 69.97 68.87 70.36
67.60 70.98 71.70 72.29 72.12 72.18 71.99 71.86 71.77 72.32 72.90 73.01 72.69 72.54 72.50 72.63 72.51 72.38 72.44 72.57 72.28 71.57 71.72 71.33 70.74 70.58 70.49 70.59 70.45 70.82 70.55 70.49 70.30 70.32 70.08 69.13 69.06 69.02 69.48 69.38 69.50 67.92 69.12
68.61 71.06 71.07 71.52 71.94 72.09 72.00 72.13 72.32 72.66 72.94 72.60 72.41 72.12 72.13 71.88 71.81 71.81 71.94 72.37 72.08 71.33 71.43 70.93 70.59 70.34 70.00 69.99 70.51 70.77 70.70 70.20 70.68 70.30 68.51 65.02 66.31 69.44 69.19 69.17 68.86 68.82 68.80
69.62 70.76 70.22 71.39 71.48 71.89 71.96 71.94 72.39 72.77 72.72 72.92 72.43 71.97 71.73 71.37 71.46 71.41 71.64 71.79 71.82 71.16 71.13 70.81 70.49 70.10 69.53 69.57 69.56 69.42 69.47 69.33 69.34 69.16 67.20 66.25 66.60 69.07 69.60 69.04 68.77 68.53 68.50
69.58 70.31 70.25 71.06 71.09 71.71 71.77 71.87 72.19 72.54 72.40 72.59 72.48 72.02 71.69 71.19 71.23 71.34 71.53 71.68 71.96 71.20 71.20 70.73 70.54 70.11 69.42 68.70 68.63 68.75 68.97 68.70 67.95 67.16 65.01 66.46 65.87 67.90 68.49 69.19 68.36 67.99 67.79
69.79 70.31 69.95 70.40 70.82 71.43 71.82 71.92 72.21 72.15 71.66 71.73 72.18 72.33 71.81 71.36 71.23 71.32 71.01 71.29 71.73 71.15 71.16 71.13 70.80 70.26 68.91 67.96 67.74 67.79 67.57 67.16 66.65 62.66 62.20 65.33 65.82 69.31 68.53 67.88 67.98 67.97 67.65
69.35 70.02 70.18 69.79 70.77 71.32 71.92 72.10 71.90 71.64 71.31 71.26 71.89 72.18 72.17 71.91 71.77 71.42 70.84 70.93 71.25 71.59 71.57 71.46 71.25 70.22 68.84 68.00 67.81 67.41 67.05 66.63 63.58 60.92 59.74 62.37 65.04 69.51 69.63 67.93 67.89 67.72 67.55
68.46 69.58 70.16 70.60 70.75 70.90 71.29 71.35 71.02 70.89 70.70 70.61 71.31 71.63 71.95 71.86 71.54 70.95 70.37 70.58 70.94 70.81 70.85 70.99 70.50 69.80 68.81 68.09 67.61 67.03 66.24 65.86 63.98 60.21 59.93 61.71 65.28 69.22 69.01 68.22 67.88 67.89 67.34
67.59 68.99 69.29 69.80 70.33 70.31 69.98 69.87 69.67 69.93 69.97 70.06 70.28 70.55 70.80 70.54 70.47 70.39 70.01 70.04 70.20 70.32 70.38 70.25 69.67 69.03 68.33 67.76 67.14 66.32 65.59 65.76 62.01 60.18 60.50 61.19 67.57 69.31 69.70 68.70 67.92 67.43 67.11
66.41 67.69 68.28 69.44 69.87 69.51 69.58 69.27 69.06 69.04 69.06 69.35 69.59 69.53 69.28 69.42 69.66 69.84 69.49 69.67 69.80 69.80 69.92 69.79 69.21 68.52 68.11 67.30 66.37 65.81 65.30 65.39 60.76 59.47 59.60 58.58 67.06 69.29 70.10 69.61 68.05 67.45 67.21
63.58 65.70 67.13 68.54 69.12 69.37 69.50 69.71 69.35 69.44 68.97 68.79 69.03 69.10 68.05 68.03 68.32 68.82 68.84 68.70 69.36 69.18 69.12 69.30 68.83 67.85 67.02 66.57 66.10 65.61 65.48 61.87 59.91 59.49 58.86 61.60 64.17 67.87 70.39 70.72 69.27 68.48 67.70
61.78 62.44 65.04 66.81 67.71 68.28 69.17 69.15 69.02 68.66 68.54 68.03 67.92 67.31 67.37 66.47 66.49 68.18 68.19 68.32 68.54 68.56 68.43 68.27 68.21 67.40 66.88 63.74 62.39 64.39 62.30 61.21 60.22 59.90 58.60 62.30 64.28 68.56 70.71 71.03 69.76 68.92 68.28
63.10 62.12 63.17 64.84 66.32 66.93 67.86 68.57 68.70 68.58 67.91 67.37 66.90 66.79 66.56 66.43 65.85 66.74 65.58 66.11 65.70 67.35 65.84 66.65 65.93 66.00 63.69 62.27 61.38 60.11 59.49 59.39 59.46 60.20 60.60 62.64 64.23 65.92 70.61 71.74 70.56 69.64 68.62
63.53 63.23 62.19 63.20 64.61 65.68 66.80 67.24 67.17 67.44 67.49 66.78 66.54 66.23 65.75 65.63 64.77 64.39 64.27 62.90 62.51 63.17 63.29 63.71 63.80 63.52 62.14 61.82 60.89 59.89 59.34 58.85 59.29 59.46 58.93 61.61 63.23 65.83 68.05 72.07 71.79 70.49 69.25
64.47 64.51 63.68 62.80 63.22 64.27 64.77 65.79 66.08 66.30 66.61 66.37 65.74 65.94 65.65 64.87 64.17 63.97 63.25 61.91 61.64 61.94 62.50 62.07 62.43 62.08 61.63 61.52 61.16 60.65 60.03 59.22 58.92 59.18 58.23 61.05 62.14 64.62 67.74 71.35 72.78 71.54 70.28
66.01 65.90 65.62 63.82 63.08 63.35 63.51 64.05 64.57 65.44 65.56 65.19 64.97 65.13 65.38 64.86 64.00 63.33 62.48 61.67 61.63 61.99 62.55 62.60 62.13 61.75 61.22 60.98 60.23 60.25 59.95 59.67 59.44 59.02 59.04 59.56 61.65 63.10 66.06 69.73 72.05 72.13 71.50
66.43 67.43 66.57 65.73 64.27 63.14 62.78 63.09 63.64 63.65 64.20 64.17 64.14 64.65 64.88 65.13 63.90 63.14 62.30 61.76 61.78 62.22 62.13 61.93 61.64 60.94 60.01 60.24 60.05 60.16 59.80 59.84 60.12 59.95 60.35 60.23 60.99 61.75 63.62 67.06 69.51 70.56 70.84
67.22 66.75 67.96 67.83 66.21 64.63 63.79 63.54 63.88 64.10 63.81 63.45 63.35 63.56 64.13 64.64 64.51 63.34 62.42 62.33 62.99 62.66 62.65 62.03 61.73 61.31 60.65 60.43 60.66 60.42 60.93 61.07 61.00 61.11 61.84 61.78 61.56 62.20 62.51 64.20 66.59 68.36 69.12
66.84 67.28 67.38 68.01 66.91 66.02 65.52 64.82 64.52 64.63 64.63 64.65 64.40 64.10 63.90 64.07 64.44 63.95 63.49 63.42 63.47 64.06 63.49 63.10 62.12 61.87 61.35 60.79 61.29 61.87 62.08 62.15 62.34 62.99 62.56 63.09 62.24 62.08 62.44 62.50 63.19 64.37 66.16
66.59 66.56 67.97 68.01 67.91 66.86 66.60 65.69 65.40 65.72 66.09 65.87 65.60 65.45 65.25 64.99 64.97 64.49 64.59 64.72 64.51 64.33 64.06 63.42 63.36 63.13 63.23 63.11 62.89 63.06 63.10 63.06 63.44 63.39 63.46 63.87 63.56 62.16 62.04 61.86 61.55 62.24 62.17
64.60 64.88 66.20 67.38 67.73 67.18 66.28 65.19 65.21 65.10 66.33 66.66 66.78 66.35 66.23 66.06 65.60 65.08 64.89 65.09 65.43 65.50 65.28 64.66 64.20 63.40 63.18 62.79 61.25 62.70 62.88 63.16 62.55 62.73 63.19 63.38 63.05 63.01 61.70 61.67 61.01 61.43 62.35
54.78 59.84 63.26 66.67 67.85 67.62 67.29 67.13 66.97 66.86 67.03 68.12 68.03 67.01 67.53 67.14 66.83 66.24 65.83 65.64 65.46 65.54 65.43 65.23 64.83 64.27 64.18 63.41 62.33 60.32 59.76 61.57 63.02 62.86 63.57 62.72 63.03 63.41 61.21 60.94 60.23 60.54 61.88
53.77 54.43 60.02 65.58 67.67 68.01 68.20 68.10 66.77 66.30 66.39 66.46 66.53 67.41 67.43 67.63 68.06 67.29 66.86 66.75 66.45 66.06 65.82 65.41 64.99 64.18 63.83 64.36 63.66 62.17 57.63 57.77 58.19 59.64 59.98 60.21 60.82 59.34 60.30 59.96 60.34 60.94 61.28
56.88 57.20 58.23 64.37 66.84 67.73 68.43 68.00 67.15 66.64 65.95 67.43 67.75 67.98 66.98 67.37 67.20 68.11 68.08 67.57 67.35 67.22 66.38 66.33 66.12 65.52 64.80 63.87 62.49 64.18 64.25 61.65 58.30 58.51 57.83 56.45 59.00 59.16 59.49 59.78 59.64 60.52 61.14
56.08 59.22 61.35 62.73 64.91 67.12 68.18 68.24 67.54 66.70 66.32 65.89 65.92 66.26 66.23 66.56 66.65 66.91 67.48 67.44 67.62 67.93 67.61 67.20 66.90 65.94 65.69 65.18 64.96 64.15 62.95 63.20 63.31 61.27 59.55 61.32 56.69 58.20 59.37 60.18 60.69 60.34 60.75
56.81 55.62 60.23 63.22 65.08 67.07 67.85 67.78 67.36 65.88 65.18 64.77 64.57 65.23 64.79 66.52 67.46 67.49 67.47 67.42 67.60 66.84 65.69 66.18 66.77 66.09 66.21 65.75 65.26 65.00 64.12 62.63 62.45 61.65 60.64 61.04 61.58 60.78 58.65 59.89 60.50 60.86 60.39
MSLP
1011.07 1011.09 1011.66 1012.19 1012.42 1012.85 1013.12 1013.15 1013.26 1013.52 1013.77 1014.18 1014.53 1014.75 1014.86 1014.95 1015.08 1015.15 1015.26 1015.37 1015.43 1015.51 1015.55 1015.70 1015.78 1015.83 1015.85 1015.97 1016.01 1016.15 1016.30 1016.36 1016.45 1016.54 1016.58 1016.64 1016.75 1016.87 1016.85 1016.90 1016.87 1016.81 1016.77
1009.94 1010.73 1011.39 1012.03 1012.51 1013.02 1013.34 1013.49 1013.56 1013.71 1013.90 1014.27 1014.67 1014.99 1015.15 1015.24 1015.32 1015.48 1015.60 1015.68 1015.71 1015.77 1015.82 1015.94 1016.04 1016.18 1016.27 1016.30 1016.36 1016.54 1016.60 1016.73 1016.81 1016.88 1016.84 1016.90 1016.98 1017.02 1017.01 1017.04 1017.05 1017.01 1017.00
1009.91 1010.65 1011.49 1011.84 1012.41 1012.83 1013.19 1013.61 1013.72 1013.88 1014.13 1014.45 1014.72 1014.98 1015.16 1015.32 1015.52 1015.71 1015.86 1015.95 1015.95 1016.00 1016.08 1016.19 1016.26 1016.42 1016.56 1016.65 1016.77 1016.85 1016.88 1016.96 1016.98 1017.12 1017.23 1017.31 1017.28 1017.21 1017.21 1017.29 1017.32 1017.28 1017.30
1010.01 1010.72 1011.27 1011.81 1012.33 1012.67 1013.13 1013.55 1013.66 1013.93 1014.14 1014.39 1014.69 1014.90 1015.18 1015.40 1015.61 1015.81 1015.98 1016.14 1016.21 1016.27 1016.31 1016.39 1016.55 1016.74 1016.91 1017.02 1017.06 1017.09 1017.17 1017.21 1017.25 1017.30 1017.43 1017.47 1017.41 1017.45 1017.40 1017.33 1017.50 1017.50 1017.53
1010.46 1010.90 1011.28 1011.64 1012.29 1012.74 1013.16 1013.49 1013.58 1013.67 1013.90 1014.19 1014.54 1014.90 1015.30 1015.62 1015.85 1016.01 1016.15 1016.26 1016.32 1016.35 1016.46 1016.62 1016.75 1016.95 1017.15 1017.26 1017.34 1017.40 1017.43 1017.44 1017.45 1017.44 1017.46 1017.51 1017.59 1017.56 1017.64 1017.45 1017.55 1017.67 1017.79
1010.48 1011.03 1011.53 1011.86 1012.29 1012.85 1013.21 1013.44 1013.59 1013.66 1013.92 1014.25 1014.55 1014.85 1015.19 1015.45 1015.70 1016.01 1016.28 1016.47 1016.58 1016.60 1016.60 1016.71 1016.84 1016.96 1017.10 1017.22 1017.35 1017.44 1017.56 1017.64 1017.61 1017.67 1017.59 1017.34 1017.55 1017.57 1017.74 1017.80 1017.68 1017.76 1017.85
1010.83 1010.98 1011.64 1012.08 1012.40 1012.29 1012.68 1013.11 1013.54 1013.78 1013.86 1014.07 1014.42 1014.69 1014.97 1015.29 1015.58 1015.82 1016.06 1016.28 1016.41 1016.54 1016.68 1016.82 1016.98 1017.09 1017.12 1017.14 1017.21 1017.33 1017.45 1017.58 1017.63 1017.68 1017.56 1017.48 1017.51 1017.52 1017.67 1017.96 1017.83 1017.81 1017.93
1010.53 1010.99 1011.55 1012.06 1012.36 1012.87 1013.11 1012.99 1013.33 1013.70 1013.95 1014.19 1014.39 1014.74 1015.13 1015.40 1015.61 1015.78 1015.95 1016.19 1016.39 1016.50 1016.60 1016.77 1016.93 1017.05 1017.09 1017.10 1017.07 1017.13 1017.24 1017.31 1017.40 1017.48 1017.39 1017.26 1017.32 1017.44 1017.56 1017.82 1017.89 1017.77 1017.85
1010.79 1011.19 1011.37 1012.11 1012.20 1012.61 1012.95 1013.88 1013.82 1013.89 1014.17 1014.24 1014.47 1014.78 1015.06 1015.35 1015.57 1015.70 1015.88 1016.05 1016.21 1016.39 1016.51 1016.58 1016.70 1016.85 1016.96 1017.01 1017.01 1017.03 1017.12 1017.19 1017.38 1017.40 1017.26 1017.14 1017.12 1017.26 1017.39 1017.67 1017.83 1017.75 1017.75
1010.88 1011.28 1011.39 1011.57 1012.24 1012.59 1012.79 1012.89 1013.62 1014.09 1014.16 1014.38 1014.65 1014.56 1014.57 1014.78 1015.06 1015.29 1015.51 1015.72 1015.90 1016.08 1016.24 1016.36 1016.45 1016.48 1016.53 1016.65 1016.79 1016.87 1016.90 1016.92 1017.18 1017.22 1017.18 1017.06 1016.96 1017.01 1017.10 1017.33 1017.51 1017.67 1017.49
1010.99 1011.13 1011.48 1011.48 1011.55 1012.06 1012.54 1012.87 1013.01 1013.34 1013.81 1014.03 1014.21 1014.41 1014.68 1014.84 1014.91 1014.94 1014.98 1015.05 1015.18 1015.38 1015.63 1015.83 1016.02 1016.20 1016.32 1016.36 1016.42 1016.53 1016.60 1016.64 1016.82 1016.90 1016.94 1016.76 1016.65 1016.56 1016.65 1016.85 1017.09 1017.28 1017.30
1010.61 1010.80 1011.33 1011.64 1011.52 1011.56 1011.82 1012.30 1012.71 1013.06 1013.33 1013.59 1013.68 1013.85 1014.15 1014.49 1014.69 1014.74 1014.84 1014.92 1015.05 1015.24 1015.33 1015.43 1015.59 1015.77 1015.88 1015.98 1016.11 1016.24 1016.34 1016.29 1016.40 1016.34 1016.39 1016.32 1016.27 1016.12 1016.04 1016.22 1016.44 1016.67 1016.86
1009.48 1010.16 1010.15 1010.67 1011.11 1011.36 1011.64 1011.63 1012.03 1012.53 1012.75 1013.01 1013.37 1013.58 1013.74 1013.94 1014.18 1014.48 1014.66 1014.80 1014.96 1015.07 1015.26 1015.38 1015.49 1015.60 1015.70 1015.82 1015.88 1015.91 1015.90 1015.94 1015.95 1015.86 1015.66 1015.66 1015.68 1015.64 1015.58 1015.65 1015.85 1016.18 1016.38
1009.28 1009.12 1009.47 1009.74 1010.31 1011.07 1011.25 1011.67 1011.68 1011.81 1012.10 1012.41 1012.54 1012.93 1013.32 1013.55 1013.69 1013.96 1014.22 1014.49 1014.90 1015.07 1015.23 1015.34 1015.42 1015.39 1015.45 1015.50 1015.57 1015.68 1015.68 1015.58 1015.35 1015.22 1015.11 1015.08 1015.08 1015.04 1015.06 1015.08 1015.27 1015.57 1015.78
1008.66 1008.88 1008.85 1008.98 1009.15 1009.44 1010.28 1010.74 1011.34 1011.63 1011.73 1011.83 1012.11 1012.35 1012.68 1013.08 1013.41 1013.59 1013.83 1014.06 1014.24 1014.59 1014.94 1015.18 1015.27 1015.33 1015.38 1015.35 1015.29 1015.15 1015.04 1014.95 1014.80 1014.79 1014.58 1014.32 1014.40 1014.56 1014.64 1014.67 1014.75 1015.06 1015.38
1007.39 1007.68 1008.16 1008.23 1008.09 1008.70 1008.71 1009.10 1009.50 1010.24 1010.57 1011.20 1011.47 1011.68 1012.10 1012.45 1012.74 1013.13 1013.45 1013.68 1013.89 1014.00 1014.11 1014.44 1014.73 1014.98 1015.02 1015.08 1015.09 1014.89 1014.75 1014.53 1014.31 1014.08 1013.90 1013.73 1013.69 1013.73 1013.74 1013.87 1014.00 1014.12 1014.34
1005.80 1005.89 1006.89 1007.41 1008.19 1008.09 1008.28 1008.76 1009.26 1009.48 1010.16 1010.43 1010.46 1010.72 1010.98 1011.44 1011.83 1012.18 1012.79 1013.09 1013.07 1013.38 1013.72 1013.90 1014.03 1014.33 1014.68 1014.75 1014.67 1014.57 1014.38 1014.02 1013.73 1013.53 1013.41 1013.27 1013.07 1013.10 1013.21 1013.36 1013.41 1013.45 1013.56
1004.81 1005.45 1005.43 1006.24 1006.88 1007.64 1007.61 1007.75 1008.16 1008.75 1009.16 1009.63 1009.96 1010.20 1010.41 1010.61 1011.03 1011.58 1011.98 1012.22 1012.31 1012.74 1013.07 1013.56 1013.84 1014.00 1014.10 1014.16 1013.99 1013.86 1013.73 1013.47 1013.20 1013.01 1012.66 1012.50 1012.54 1012.48 1012.46 1012.81 1012.93 1012.86 1012.95
1003.56 1004.02 1004.56 1005.23 1005.66 1006.02 1006.85 1007.34 1007.66 1007.91 1008.41 1008.74 1009.22 1009.52 1009.79 1010.18 1010.38 1010.80 1011.35 1011.49 1011.77 1012.24 1012.60 1012.97 1013.12 1013.29 1013.39 1013.32 1013.23 1013.14 1012.93 1012.87 1012.56 1012.14 1012.02 1011.74 1011.70 1011.64 1011.65 1011.59 1011.87 1011.96 1012.09
1002.40 1002.96 1003.36 1004.02 1004.36 1004.96 1006.08 1006.99 1007.39 1007.79 1007.81 1008.04 1008.44 1009.10 1009.56 1009.90 1010.30 1010.59 1010.82 1011.01 1011.27 1011.89 1012.15 1012.21 1012.22 1012.24 1012.15 1012.21 1012.20 1011.99 1011.87 1011.84 1011.60 1011.46 1011.15 1010.91 1010.70 1010.62 1010.69 1010.76 1010.95 1010.96 1011.37
1001.90 1002.18 1002.56 1003.07 1003.39 1004.61 1005.18 1005.76 1006.32 1006.32 1007.14 1007.51 1007.93 1008.36 1008.58 1009.13 1009.48 1010.11 1010.41 1010.68 1010.93 1011.23 1011.26 1011.37 1011.52 1011.83 1011.67 1011.63 1011.93 1011.64 1011.31 1011.26 1010.88 1010.59 1010.31 1010.27 1009.94 1009.59 1009.56 1009.55 1009.63 1009.94 1010.30
1000.71 1000.87 1001.35 1001.65 1002.33 1002.97 1003.56 1003.88 1004.88 1005.50 1006.03 1006.83 1007.42 1007.79 1008.07 1008.24 1008.63 1009.28 1009.70 1010.10 1010.31 1010.49 1010.69 1010.82 1010.93 1011.05 1010.69 1010.95 1011.23 1011.52 1010.96 1010.09 1009.49 1008.92 1008.96 1009.18 1008.76 1008.90 1008.83 1008.59 1008.82 1009.29 1009.76
999.98 999.86 1000.02 1000.38 1001.03 1001.62 1002.17 1003.49 1004.49 1005.25 1005.89 1006.35 1006.64 1006.93 1007.06 1007.73 1008.17 1008.54 1008.95 1009.26 1009.49 1009.66 1009.67 1009.98 1010.33 1010.34 1010.13 1010.24 1010.83 1011.08 1010.66 1009.88 1008.79 1008.21 1007.86 1008.30 1008.10 1008.00 1008.04 1008.11 1008.23 1008.70 1009.17
999.19 999.41 999.44 999.67 1000.19 1000.95 1001.88 1002.69 1003.33 1003.84 1004.72 1004.91 1005.45 1006.05 1006.78 1007.46 1007.85 1008.20 1008.20 1008.35 1008.55 1008.83 1008.94 1008.91 1009.30 1009.42 1009.71 1009.41 1010.09 1009.98 1009.62 1009.50 1009.32 1007.80 1007.81 1007.78 1007.97 1007.83 1007.93 1007.88 1007.54 1008.17 1007.76
999.13 999.00 998.98 999.50 999.94 1000.52 1001.22 1001.97 1002.93 1003.68 1004.36 1004.85 1005.52 1006.10 1006.36 1006.64 1007.12 1007.77 1007.78 1007.99 1008.33 1008.28 1008.36 1008.51 1008.62 1008.63 1008.85 1008.95 1008.84 1008.88 1008.88 1008.72 1008.66 1008.23 1007.32 1007.05 1007.76 1007.89 1007.76 1007.59 1007.74 1006.78 1006.13
1000.07 999.13 999.21 999.35 999.67 1000.20 1000.98 1001.74 1002.46 1003.21 1004.07 1004.81 1005.55 1006.05 1006.50 1006.94 1007.01 1007.42 1007.49 1007.61 1007.76 1008.09 1008.14 1008.20 1008.21 1008.29 1008.36 1008.26 1008.25 1008.18 1008.20 1008.02 1007.74 1007.63 1006.95 1006.66 1006.46 1006.44 1007.11 1005.53 1007.06 1006.37 1005.07
Wind_Speed
6 11 15 13 11 8 9 12 15 17 17 16 14 13 12 12 12 12 12 11 11 12 12 12 12 13 14 13 14 14 13 12 11 11 12 12 11 11 12 11 10 8 12
12 13 17 15 12 10 9 10 12 15 17 16 14 12 11 11 11 11 10 10 10 11 12 12 11 11 12 12 11 11 11 10 10 9 10 10 10 11 12 11 10 8 9
15 14 14 16 14 13 12 12 11 13 15 15 14 12 12 11 11 10 9 8 8 10 10 10 10 10 10 9 7 8 8 8 9 8 7 4 3 9 11 11 10 10 10
16 14 15 17 16 15 13 12 13 14 15 14 13 13 12 12 11 10 9 6 7 8 8 8 7 7 8 6 5 6 5 3 1 2 2 3 2 6 9 11 10 9 9
12 12 13 19 17 16 14 12 12 14 15 15 14 13 12 10 10 9 8 7 6 8 8 7 6 5 5 4 3 3 2 2 4 5 3 4 3 4 7 11 10 9 8
12 11 11 17 17 15 14 13 13 13 13 13 13 13 13 12 11 9 7 6 4 6 7 7 7 5 4 4 3 2 1 3 4 3 5 6 5 7 7 8 10 10 8
10 9 10 14 15 18 18 16 14 13 13 14 13 13 13 12 11 10 9 8 8 6 6 6 5 4 5 5 4 3 2 0 2 2 4 2 5 10 10 10 11 10 10
14 10 11 14 15 13 14 15 14 13 13 13 13 12 11 10 9 9 9 8 8 7 7 6 6 6 7 7 7 7 5 4 2 3 4 4 9 12 12 12 11 11 11
8 10 11 11 13 13 13 7 8 10 10 11 11 11 10 10 9 9 9 9 8 8 8 8 8 8 8 8 9 9 7 7 3 3 4 2 10 13 14 13 13 13 13
7 8 11 12 10 9 10 14 11 9 10 11 10 12 13 13 12 12 11 10 10 10 10 10 10 10 10 10 9 9 9 9 4 4 4 4 9 15 16 15 15 15 14
6 9 9 13 15 14 11 10 14 15 14 13 12 12 9 5 7 9 11 13 13 13 12 12 12 11 10 10 10 10 10 4 4 4 3 10 12 16 19 16 16 15 15
13 12 10 10 12 13 10 10 10 10 9 8 9 9 7 6 6 7 9 12 12 12 12 12 12 12 10 4 4 7 4 5 4 4 4 11 13 15 19 17 17 17 16
16 12 15 13 11 11 9 8 7 6 6 7 9 9 8 6 5 5 3 4 4 9 4 6 6 6 6 4 4 4 5 5 4 4 6 12 14 17 20 19 19 19 17
13 17 16 15 13 11 7 7 8 9 8 7 9 10 7 6 6 6 5 5 4 3 5 5 4 6 6 6 6 6 6 6 5 4 6 13 15 17 20 21 21 20 19
16 15 17 17 16 15 13 9 8 9 8 9 8 9 8 7 7 5 5 4 5 4 5 4 5 5 6 6 7 8 8 9 9 5 4 12 15 16 18 21 22 21 20
16 18 16 18 18 15 17 16 13 11 11 9 8 9 11 8 7 6 6 6 5 5 6 5 6 6 7 5 7 8 9 8 9 9 6 7 13 16 17 21 23 22 22
19 19 19 18 14 16 17 13 10 9 9 10 10 13 14 12 10 10 7 7 7 6 7 5 5 4 4 4 8 7 6 10 9 9 8 7 7 13 16 20 23 23 24
18 17 19 16 18 16 16 14 12 10 9 9 9 9 13 13 13 10 7 7 6 6 6 6 5 6 6 6 7 7 7 7 10 11 10 8 7 8 10 19 21 23 22
20 18 18 19 20 21 16 12 12 12 10 9 7 8 11 12 12 10 8 8 6 6 6 6 6 6 6 7 8 8 8 8 10 10 13 12 11 10 8 13 23 23 24
22 19 18 16 20 19 11 9 7 8 9 8 8 8 9 8 10 9 8 8 6 5 5 5 10 7 8 8 8 9 8 9 10 10 12 11 12 11 11 12 8 13 22
19 18 19 17 19 12 12 12 11 14 9 9 9 9 9 10 11 11 8 7 6 8 10 9 7 9 8 4 2 8 8 9 10 10 10 10 13 13 11 10 8 6 7
20 20 20 21 19 17 13 13 10 9 8 6 6 7 9 11 11 10 10 8 8 8 9 9 10 8 8 5 5 1 5 5 10 10 9 10 15 9 7 8 7 6 4
14 17 19 20 21 19 19 10 3 4 3 4 5 7 10 10 10 11 11 10 10 10 9 10 9 11 11 4 8 6 3 9 3 1 5 5 8 5 6 6 6 6 6
9 7 10 14 17 15 15 13 18 12 9 9 8 5 4 6 8 10 11 11 11 8 10 10 7 9 7 11 3 8 12 6 6 11 2 3 4 7 7 5 4 4 8
6 7 7 8 9 12 15 14 11 8 4 4 3 6 5 5 6 6 6 6 8 7 7 9 9 7 8 10 9 7 7 8 11 10 12 10 3 4 6 5 5 9 11
9 4 6 9 11 12 13 12 14 11 8 6 5 3 1 2 1 4 5 5 5 4 5 5 6 7 7 8 8 9 8 7 7 8 9 12 12 5 9 12 10 9 7
Wind_Direction
207 168 167 171 164 162 142 134 131 127 123 120 116 113 113 111 110 111 114 117 118 119 114 112 112 110 108 109 106 104 102 95 92 93 94 95 98 102 100 93 89 87 89
144 164 165 168 166 158 158 153 140 133 127 124 120 118 114 113 112 112 113 116 121 124 124 122 118 113 112 109 107 107 107 105 99 91 100 106 110 112 112 108 100 101 104
152 160 167 167 165 164 172 164 146 136 127 128 128 126 121 121 121 121 122 126 132 131 127 126 124 123 119 113 102 103 109 120 114 84 97 99 113 123 120 117 115 117 116
154 161 169 168 168 170 171 170 155 147 140 140 139 136 137 139 138 138 135 134 135 135 132 132 126 119 115 110 112 113 117 125 55 39 96 147 141 144 139 126 127 125 121
154 164 172 168 171 170 168 172 166 158 157 152 150 151 147 145 146 147 144 145 151 152 149 150 145 130 118 122 119 105 91 44 356 338 314 244 199 176 160 146 135 132 130
153 163 170 171 166 168 172 174 177 169 160 156 155 156 159 161 160 155 151 153 166 171 171 171 175 176 177 169 164 158 64 20 338 336 312 225 193 192 181 161 146 147 145
156 157 164 172 174 171 175 177 179 177 166 164 166 167 168 167 167 164 166 173 179 190 194 189 190 220 229 235 230 233 246 243 291 307 307 286 197 197 193 182 165 158 161
161 158 165 175 175 176 187 179 178 182 178 173 168 168 170 171 171 173 176 183 193 197 201 204 207 225 241 257 269 270 264 244 187 260 273 254 205 202 199 191 183 171 173
153 163 164 182 178 174 170 201 193 178 187 180 176 171 174 177 183 185 188 193 200 209 211 211 218 232 246 258 270 281 286 286 272 250 272 258 209 207 209 200 197 188 184
153 172 176 171 182 182 186 175 185 192 189 188 190 186 184 185 189 194 198 203 205 211 216 221 223 227 235 246 258 272 282 287 273 261 260 248 229 218 218 209 205 206 193
180 182 185 183 180 186 189 194 186 190 194 194 194 194 195 197 199 201 201 202 207 210 213 216 221 229 239 247 251 255 265 259 260 243 240 254 245 233 222 213 210 210 206
196 194 190 191 187 181 184 186 192 196 195 197 193 193 191 195 204 208 215 215 218 220 220 221 223 226 230 224 244 259 247 256 254 246 220 247 255 244 223 218 211 212 211
194 194 193 188 190 186 195 182 191 196 193 195 199 198 199 193 198 210 214 222 219 229 226 228 234 232 224 221 234 231 239 248 241 249 244 227 241 246 234 226 215 215 214
200 201 196 189 183 193 189 197 194 194 195 197 202 197 190 201 202 205 204 205 210 214 225 223 230 232 229 228 225 240 245 245 247 244 244 238 240 244 244 231 223 219 218
209 209 205 193 193 186 189 187 196 202 204 205 201 200 195 199 207 203 213 194 198 185 208 220 230 240 240 239 241 232 239 244 247 245 243 243 238 242 242 237 229 226 227
203 212 207 208 197 192 195 193 191 194 195 197 198 200 200 202 204 202 208 209 215 202 204 207 214 224 239 240 249 244 249 250 249 244 238 249 239 235 232 232 229 226 226
208 207 206 203 204 201 201 200 203 203 207 207 206 200 197 199 201 202 207 213 215 203 209 207 219 215 233 236 249 245 239 249 251 246 242 241 249 239 229 225 227 228 229
217 201 206 198 200 206 206 200 196 198 197 208 210 205 207 204 205 206 208 217 206 192 205 210 215 226 232 232 245 243 241 235 247 252 254 242 232 237 229 230 230 232 232
217 210 204 198 199 204 207 204 204 200 200 207 205 206 204 208 206 205 212 219 193 198 204 211 214 212 223 226 240 248 245 245 244 246 246 248 239 233 231 223 224 229 230
221 216 210 200 207 201 193 197 200 208 206 198 199 210 203 203 206 208 216 216 190 200 211 203 222 214 228 235 236 241 238 239 240 240 247 244 243 229 228 229 214 226 234
230 226 213 203 206 186 189 190 195 208 202 206 202 206 195 197 197 205 216 216 199 214 218 212 224 230 236 211 247 257 257 244 238 231 236 238 242 237 221 220 214 217 243
210 215 216 210 200 195 193 201 203 200 202 194 196 190 198 199 201 206 211 219 209 223 226 218 220 242 250 197 230 28 291 292 245 227 223 227 236 232 220 206 194 191 230
204 202 205 205 200 198 196 182 130 107 101 152 180 193 200 197 199 200 205 213 218 218 227 223 218 225 253 218 204 225 257 244 331 176 220 222 220 195 194 185 195 209 217
227 208 208 203 198 197 186 181 186 191 188 204 199 200 168 182 190 202 207 210 217 220 230 228 223 223 227 259 211 224 248 279 294 293 214 258 219 213 214 233 190 204 228
219 202 183 167 172 175 183 184 184 187 164 125 118 154 185 191 202 221 218 223 229 230 237 238 239 222 223 243 248 251 221 235 246 256 277 278 218 239 233 243 223 202 236
278 194 182 174 174 166 172 174 181 170 151 129 136 167 177 255 230 259 237 221 235 240 246 252 249 238 237 234 249 256 258 265 267 267 267 270 272 253 209 212 238 244 249